MDT,Max TemperatureF,Mean TemperatureF,Min TemperatureF,Max Dew PointF,MeanDew PointF,Min DewpointF,Max Humidity, Mean Humidity, Min Humidity, Max Sea Level PressureIn, Mean Sea Level PressureIn, Min Sea Level PressureIn, Max VisibilityMiles, Mean VisibilityMiles, Min VisibilityMiles, Max Wind SpeedMPH, Mean Wind SpeedMPH, Max Gust SpeedMPH,PrecipitationIn, CloudCover, Events, WindDirDegrees
2013-3-1,45,34,23,27,24,20,100,72,43,30.36,30.29,30.20,10,8,0,21,8,25,T,3,Fog,329
2013-3-2,60,44,28,35,31,24,85,61,36,30.31,30.18,30.03,10,10,10,23,9,30,0.00,2,,279
2013-3-3,69,50,31,35,31,27,85,55,24,30.01,29.73,29.58,10,10,10,24,8,31,0.00,0,,289
2013-3-4,52,37,24,31,20,8,85,60,35,30.26,29.92,29.60,10,9,1,30,18,41,T,4,Snow,339
2013-3-5,42,31,19,14,10,6,73,48,23,30.42,30.36,30.27,10,10,10,25,11,33,0.00,0,,342
2013-3-6,51,34,16,26,21,13,88,62,36,30.35,30.15,29.97,10,10,10,25,14,33,0.00,0,,138
2013-3-7,54,38,22,28,26,22,92,64,35,30.09,30.01,29.95,10,9,5,12,5,14,0.00,1,,121
2013-3-8,53,40,26,40,32,23,92,70,48,30.04,29.86,29.62,10,9,6,18,8,22,0.00,3,,47
2013-3-9,48,38,27,46,32,23,100,88,76,30.04,29.69,29.54,10,4,0,39,21,48,0.16,8,Fog-Rain-Snow-Thunderstorm,1
2013-3-10,31,24,17,21,15,12,84,69,53,30.21,30.16,30.05,10,10,10,31,17,39,0.00,1,,335
2013-3-11,48,32,16,33,24,12,82,66,49,30.15,30.04,29.97,10,10,10,26,10,32,0.00,4,,299
2013-3-12,46,35,24,28,19,13,82,55,27,30.38,30.30,30.17,10,10,10,26,11,32,0.00,2,,324
2013-3-13,66,45,24,33,27,18,78,52,26,30.34,30.23,30.13,10,10,10,14,7,20,0.00,1,,205
2013-3-14,73,57,40,34,31,27,70,45,19,30.23,30.13,30.01,10,10,10,16,9,20,0.00,0,,273
2013-3-15,81,60,38,35,29,18,76,43,10,29.99,29.85,29.72,10,10,10,24,9,31,0.00,0,,304
2013-3-16,48,39,30,32,29,25,92,67,42,30.09,30.00,29.90,10,9,6,25,10,29,0.00,4,,89
2013-3-17,56,43,30,39,30,25,100,68,35,29.98,29.80,29.55,10,7,0,33,18,43,0.09,6,Fog-Rain-Thunderstorm,164
2013-3-18,50,38,25,25,17,10,81,51,21,30.06,29.96,29.87,10,10,10,25,11,31,0.00,2,,325
2013-3-19,53,37,21,26,17,7,92,54,16,30.43,30.21,30.05,10,10,10,28,9,33,0.00,2,,355
2013-3-20,52,34,15,20,15,11,80,52,24,30.45,30.18,29.85,10,10,10,25,12,31,0.00,2,,159
2013-3-21,47,36,24,34,25,17,92,65,37,29.88,29.77,29.68,10,9,6,21,12,25,0.06,5,Rain,154
2013-3-22,50,37,23,32,27,21,96,67,37,29.98,29.89,29.82,10,8,0,16,7,23,0.25,4,Fog-Rain-Snow,28
2013-3-23,31,25,18,31,23,12,100,87,73,30.28,30.03,29.90,10,2,0,30,18,37,0.19,8,Fog-Snow,30
2013-3-24,33,20,7,18,10,3,88,69,49,30.39,30.29,30.20,10,10,8,25,12,32,T,1,,319
2013-3-25,31,20,9,15,10,4,88,71,53,30.47,30.42,30.38,10,10,10,18,10,23,0.00,0,,295
2013-3-26,41,24,6,28,17,1,84,70,56,30.40,30.24,30.12,10,10,10,20,8,24,0.00,1,,178
2013-3-27,57,42,26,34,29,24,92,65,38,30.19,30.13,30.07,10,10,7,9,3,18,0.00,2,,303
2013-3-28,64,47,30,37,33,29,92,63,34,30.18,30.12,30.05,10,10,9,21,9,26,0.00,0,,188
2013-3-29,72,53,34,45,38,31,89,60,31,30.14,30.04,29.94,10,10,5,33,10,41,0.03,2,Rain-Thunderstorm,210
2013-3-30,68,53,38,45,36,33,85,58,31,30.15,30.04,29.95,10,10,10,24,10,35,0.03,2,Rain,335
2013-3-31,71,52,32,36,29,21,89,53,16,30.14,30.03,29.86,10,10,10,30,13,37,0.00,0,,310